Theta_e
317 321 323 323 323 322 321 320 319 325 329 325 322 332 333 333 334 335 337 335 332 333 330 323 324 327 326 323 312 309 306 304 303 305 305 304 308 306 305 305 305 305 304
316 316 320 322 321 320 322 321 323 327 325 325 327 330 330 334 334 332 333 332 331 326 324 325 326 321 322 309 307 303 301 302 303 303 303 307 306 304 304 304 305 304 304
315 315 315 317 321 320 320 322 325 327 327 327 327 328 330 329 329 328 328 327 323 323 325 322 319 312 307 303 301 300 300 300 301 305 308 306 303 303 304 305 304 303 303
313 314 314 317 322 321 323 325 324 326 326 325 326 327 326 326 325 324 325 324 323 322 320 312 305 302 300 300 300 300 301 305 308 307 303 301 301 301 303 304 303 302 302
311 311 312 312 314 325 323 325 325 324 325 325 326 324 324 322 322 322 321 319 316 312 304 301 301 301 301 300 301 303 306 307 304 302 301 301 301 302 302 302 302 302 303
311 311 310 311 315 323 324 322 321 322 323 323 323 322 319 320 315 314 312 310 304 301 301 303 302 302 300 300 304 306 306 304 302 302 302 303 302 302 302 303 302 301 302
311 311 311 311 317 323 321 320 321 321 321 318 317 316 314 312 311 307 304 301 303 303 304 302 302 302 300 304 305 304 303 303 303 304 304 305 304 303 303 303 301 302 302
309 310 311 314 319 320 319 319 319 318 316 314 312 312 310 307 304 302 305 303 303 304 303 304 303 301 301 304 304 303 304 303 303 304 305 305 305 303 303 302 302 302 301
309 309 310 317 318 319 319 318 317 315 313 311 308 304 303 302 301 300 300 303 303 305 304 304 301 301 302 303 304 304 304 304 305 305 305 305 306 304 303 303 301 302 302
308 309 313 314 316 318 316 315 313 310 307 305 304 303 303 302 301 301 301 302 302 304 304 303 301 301 302 302 303 304 304 305 305 305 304 304 304 304 303 303 301 300 301
308 311 313 314 315 316 314 312 309 307 305 303 302 300 298 298 299 299 300 300 301 303 302 301 302 302 303 304 304 304 305 306 305 304 303 303 303 303 304 302 301 300 300
308 313 313 313 313 312 312 308 306 305 304 302 299 299 300 300 301 301 300 299 300 301 302 302 302 303 304 304 305 305 304 304 304 302 302 303 303 302 303 303 302 301 300
308 312 312 312 310 308 308 306 305 303 302 301 300 301 301 302 302 301 301 302 302 302 302 303 303 304 304 305 305 304 304 304 303 303 303 303 302 302 301 301 301 300 299
309 309 309 310 307 306 306 305 305 303 301 300 301 301 302 301 301 302 302 302 302 302 302 303 303 304 304 303 304 303 303 303 303 303 303 302 302 302 301 299 299 299 299
308 308 308 306 306 306 306 306 306 304 300 301 301 302 301 301 301 301 302 302 302 302 302 303 303 303 303 303 302 302 302 303 303 303 303 302 302 302 300 299 299 300 299
308 307 306 307 307 306 305 305 302 300 300 301 302 302 301 301 301 302 302 302 301 301 301 302 302 302 302 302 302 302 302 303 303 303 302 302 302 301 299 299 299 299 299
308 306 307 308 307 305 304 302 300 300 300 301 301 301 301 301 301 301 301 301 301 301 300 300 300 301 301 301 301 301 302 302 302 303 303 302 302 301 299 299 299 298 298
307 307 308 307 306 304 301 300 300 300 302 302 302 301 301 300 300 300 300 300 300 300 301 301 300 300 300 301 301 300 301 301 302 303 303 302 302 301 300 300 299 298 297
307 308 308 306 302 300 300 300 302 301 301 302 301 301 301 300 300 299 299 300 300 300 300 300 300 300 300 300 300 300 300 301 302 303 303 303 302 301 300 300 299 299 297
308 307 305 301 300 300 301 302 301 301 301 301 301 300 300 300 299 299 299 299 299 299 300 300 300 300 300 300 300 300 300 301 303 303 303 303 302 301 300 300 300 299 299
305 302 299 299 300 302 301 300 301 300 300 300 300 300 300 298 297 297 298 298 298 298 298 299 299 299 299 299 299 299 300 300 300 301 302 302 302 301 301 300 300 299 299
302 298 298 300 301 301 300 300 300 300 300 300 299 298 297 294 295 297 298 298 295 293 294 296 297 297 296 297 298 298 299 299 299 299 300 301 300 299 299 299 300 300 299
296 297 298 300 301 300 300 300 300 300 300 299 298 296 293 294 294 295 293 291 291 291 292 293 293 293 295 297 297 297 297 297 298 299 299 299 299 299 300 300 300 300 300
297 297 299 301 300 300 299 300 300 300 299 297 294 292 292 292 292 292 292 292 291 291 291 291 291 291 292 295 296 296 296 296 298 299 299 299 299 299 300 300 300 300 300
297 299 300 300 300 299 299 300 299 298 296 294 292 291 291 291 291 291 291 292 292 292 292 291 291 290 291 293 294 295 295 298 299 299 299 298 298 299 300 299 299 299 300
298 299 299 299 298 298 298 298 297 296 294 292 291 291 291 291 291 291 291 291 292 291 291 291 291 290 290 290 291 292 294 297 298 298 299 298 298 298 299 299 299 299 299
Wind_Speed
12 9 6 6 8 10 12 18 24 25 24 27 22 15 18 19 25 26 31 30 26 23 24 19 16 12 7 5 6 13 9 8 8 7 9 9 9 12 15 18 17 12 12
9 8 7 8 10 12 14 17 21 24 24 23 14 15 17 21 25 26 32 25 25 25 18 15 12 8 5 3 10 7 5 4 4 4 5 5 8 12 16 17 12 13 12
11 12 11 12 12 15 17 18 20 20 18 15 12 12 17 18 25 28 28 26 22 20 17 14 12 10 7 7 3 2 3 2 1 1 1 3 7 10 11 13 12 12 12
12 13 14 16 14 15 15 16 16 14 13 12 11 11 12 14 21 26 26 25 23 17 14 14 13 10 8 5 1 1 2 4 6 7 7 8 10 13 12 15 13 9 10
17 19 19 20 22 12 14 13 11 11 11 12 11 10 14 21 23 24 22 22 21 21 20 18 15 13 8 2 2 4 7 9 11 11 11 12 15 19 22 20 17 14 10
18 21 22 20 18 14 11 8 10 10 9 10 13 14 19 22 25 23 21 22 23 22 18 16 13 7 7 6 7 9 11 11 13 11 12 12 15 18 19 19 20 19 18
13 19 22 17 14 12 7 8 6 8 8 10 12 14 18 19 18 23 27 23 21 19 16 13 14 12 12 12 12 11 13 12 10 11 12 13 15 17 19 21 20 12 14
15 19 18 12 10 9 7 6 4 6 6 14 19 20 20 21 21 19 19 17 14 16 15 14 12 13 14 13 12 14 13 11 10 10 10 12 14 14 17 19 15 12 14
18 17 18 8 10 7 6 7 8 10 19 22 22 23 23 21 18 16 12 7 12 17 17 13 12 14 15 14 15 13 13 10 10 10 11 12 11 12 15 17 19 15 16
17 15 11 9 10 6 11 13 14 20 25 26 25 20 19 20 16 10 6 13 16 18 17 16 14 13 15 15 14 13 11 11 11 11 12 11 9 11 13 19 22 24 20
13 9 10 8 8 10 13 14 23 28 28 27 26 27 27 21 13 10 11 14 17 17 17 18 16 15 16 17 16 14 14 13 12 12 12 12 12 13 11 13 19 23 21
9 7 8 6 9 13 16 27 29 27 26 30 32 29 23 16 17 19 19 20 20 21 24 22 18 17 18 18 17 16 14 13 12 13 13 13 14 15 12 8 14 17 19
7 8 9 10 15 20 28 32 29 28 30 30 30 26 23 23 25 26 26 27 26 26 25 23 23 22 20 18 18 15 14 13 12 12 15 16 18 17 15 12 11 13 17
9 14 16 18 25 32 31 26 26 29 28 28 25 24 26 27 30 28 27 25 24 24 25 23 23 22 20 19 17 15 15 14 13 14 17 18 17 16 18 15 13 14 19
18 19 22 27 34 33 30 28 26 26 24 25 25 26 29 30 27 24 23 22 22 22 21 22 22 20 20 19 19 18 17 18 18 19 19 18 17 17 19 19 17 15 19
24 26 29 31 32 32 34 32 27 28 24 24 24 27 27 26 23 21 20 20 18 14 17 21 22 21 20 19 17 17 17 17 18 17 17 18 17 16 20 20 18 20 21
29 31 32 34 36 37 36 35 40 29 25 25 24 25 24 24 20 19 18 18 18 20 25 24 24 23 22 20 19 19 18 16 13 12 16 18 17 20 24 27 21 26 27
32 35 37 37 37 37 37 38 33 31 32 29 26 24 21 18 16 13 9 12 21 24 25 24 23 21 20 19 18 17 15 16 14 13 14 16 17 18 23 27 28 32 32
39 41 40 39 39 41 39 35 34 33 34 33 28 22 16 16 14 16 17 21 22 21 20 21 21 20 19 18 19 18 17 16 14 14 12 15 16 18 20 23 25 29 32
42 43 42 44 43 39 36 36 34 35 34 30 25 21 17 13 14 17 19 19 19 18 18 18 17 18 19 19 18 18 19 19 18 15 12 13 15 16 17 18 22 24 30
46 45 44 45 42 40 37 36 36 35 32 27 22 16 12 13 16 17 16 17 19 18 17 17 18 19 18 17 17 18 19 19 18 15 12 13 13 14 14 15 18 20 24
45 47 45 45 42 36 35 35 34 32 27 24 21 17 13 18 19 19 20 18 18 21 20 19 18 17 17 18 19 19 20 20 19 17 15 15 15 15 15 16 17 18 21
46 45 44 42 38 36 35 33 31 27 23 21 18 17 18 20 21 22 22 24 25 26 24 21 18 17 19 20 21 22 22 23 22 20 19 19 19 18 18 19 18 19 20
42 42 43 41 38 36 33 31 28 24 22 20 18 19 20 19 22 24 24 23 24 24 24 25 26 23 21 22 22 22 22 22 21 21 20 19 20 19 20 20 18 17 18
41 42 41 38 35 33 30 28 26 23 21 20 20 20 20 20 22 23 22 21 21 22 23 24 27 27 26 25 24 23 23 23 23 23 23 23 21 20 20 19 19 18 17
41 40 37 35 32 29 27 26 24 21 21 20 21 22 20 22 24 24 24 23 22 24 24 25 26 28 29 28 26 25 25 24 24 24 24 25 26 25 21 20 18 17 17
Wind_Direction
0 358 333 308 300 295 286 290 293 286 290 290 291 267 263 264 256 247 238 224 227 221 193 178 176 190 211 267 271 249 265 267 271 279 295 316 329 337 346 344 338 341 10
359 351 319 299 305 309 298 298 294 287 292 292 292 268 262 259 259 237 221 217 209 181 171 175 170 167 164 223 239 254 265 288 290 278 303 332 346 348 349 345 1 16 20
356 352 331 305 293 302 309 303 297 301 303 295 292 279 261 269 232 212 193 182 169 170 172 170 160 139 141 205 205 265 290 271 301 154 95 7 358 352 3 19 29 27 31
349 349 348 323 299 301 309 311 312 303 303 302 298 270 252 225 202 184 172 171 170 166 155 138 132 135 143 115 42 342 91 97 105 105 88 58 40 35 28 29 28 7 4
328 333 331 322 316 313 317 317 313 304 298 281 272 243 217 188 181 178 172 163 153 141 136 134 123 107 90 50 53 102 103 112 108 99 82 60 45 40 36 24 17 8 5
322 324 324 318 312 310 321 321 321 300 283 254 231 218 190 181 167 158 149 141 133 133 131 122 117 112 92 98 114 115 123 117 109 95 76 54 44 41 32 19 11 7 15
323 316 313 315 307 304 301 323 303 269 243 210 190 182 158 143 149 142 138 135 139 132 122 111 113 103 96 103 104 115 116 108 103 88 72 52 40 32 26 22 13 22 22
323 316 314 306 294 292 291 299 246 208 190 157 147 143 140 132 127 131 130 129 127 112 115 117 108 101 99 102 109 112 101 100 96 81 54 44 44 34 29 23 19 23 30
299 319 317 273 262 276 241 206 184 180 155 142 131 122 116 102 96 94 105 101 112 117 123 119 108 106 96 101 110 106 98 92 81 66 50 41 38 30 25 15 29 26 25
295 316 310 258 233 231 194 176 164 146 131 124 112 105 99 94 91 89 114 127 121 122 126 106 94 92 100 99 106 108 106 91 75 59 49 39 31 20 9 18 18 26 27
284 294 273 238 216 207 178 162 146 135 124 116 110 100 88 76 88 114 114 106 110 123 105 95 88 89 95 100 102 103 93 78 74 62 48 45 33 14 3 17 14 14 24
266 236 234 204 190 169 159 142 137 130 121 114 105 99 92 92 91 93 93 94 99 100 92 88 90 93 95 97 98 93 84 77 74 63 68 62 38 41 49 27 13 13 20
210 211 195 171 153 149 146 138 132 120 113 110 107 106 102 100 99 95 94 99 101 96 91 88 86 89 97 96 89 82 72 66 69 65 63 51 50 50 52 40 20 16 35
194 189 164 158 145 143 141 129 124 119 115 116 116 107 102 98 96 95 101 104 98 93 88 89 90 87 85 85 81 72 69 70 71 70 59 54 52 47 46 36 39 59 57
189 167 155 149 145 140 134 129 118 114 116 119 113 105 106 104 100 100 100 98 92 87 92 95 91 87 83 84 83 76 72 71 72 69 58 56 47 49 51 45 57 67 69
167 158 154 146 141 139 129 122 112 114 119 110 105 113 109 100 103 101 97 92 89 96 95 85 78 76 76 74 71 67 66 79 63 54 58 52 58 60 49 54 70 74 76
162 152 144 144 143 136 133 129 121 123 115 111 111 112 101 96 97 95 98 105 99 92 84 80 73 66 65 65 63 60 70 70 59 65 72 55 63 71 63 61 72 78 73
152 146 145 145 138 135 130 124 124 126 120 115 117 109 100 98 89 87 103 103 92 83 76 74 72 67 64 63 62 62 65 51 47 60 73 65 68 77 73 65 72 83 80
147 143 144 140 137 134 130 128 127 124 123 121 120 112 105 101 102 97 95 89 84 80 77 74 70 67 63 61 56 51 48 52 47 57 80 69 71 77 83 77 78 82 85
143 143 143 139 136 133 135 134 130 126 120 118 117 114 116 119 109 97 86 85 86 80 75 74 70 64 60 55 55 53 54 56 54 63 76 65 69 77 87 89 88 88 89
145 142 140 137 136 139 137 133 129 123 120 120 115 120 124 114 98 94 100 89 80 79 73 68 64 59 54 53 54 54 54 54 51 51 54 62 70 78 83 91 97 100 97
143 140 140 140 141 137 134 131 126 123 122 121 122 117 109 97 96 100 97 87 77 72 68 63 60 57 55 61 61 62 59 51 46 50 58 68 75 80 87 95 106 104 110
143 144 144 143 139 134 130 128 128 126 127 123 117 113 109 102 102 99 93 86 77 71 67 64 62 60 60 62 64 63 56 49 50 58 65 74 76 84 87 100 106 108 119
148 145 142 142 140 134 130 131 131 130 125 119 116 114 110 111 106 98 92 86 81 77 71 65 60 59 64 65 66 62 54 52 59 58 62 72 80 88 89 94 97 106 119
148 146 144 143 140 136 135 135 134 131 125 119 116 116 115 112 104 97 92 88 83 78 73 68 62 60 63 66 63 60 59 63 63 63 68 75 77 87 91 91 95 102 109
150 147 144 142 139 137 138 138 136 132 126 123 123 118 117 113 103 98 92 88 87 83 78 72 66 63 62 62 62 64 65 68 67 63 69 74 73 78 86 88 92 95 99